DMSP 5D-2 F13 DEB, 40490

Orbit data source: Space-Track

DMSP 5D-2 F13 DEB, 40490 is space debris in SSO originally from a launch on Fri, 24 Mar 1995 UTC launched from the Air Force Western Test Range (AFWTR). Debris objects in space refer to the collection of defunct objects orbiting the Earth. Examples of debris include non-operational satellites, rocket bodies, and fragments generated from explosions, collisions, or faulty payload assembly.

Loading next visibility...
Identifier
40490, 1995-015CD
Orbit
SSO
Country
Flag of USUS
Related business
Manufacturer
Unknown
Mission
Spacecraft
Bus & Motor
Unknown
Mass
Unknown
Launch date (UTC)
1995-03-24 (31 years ago)
Launch vehicle
Unknown
Launch site
Air Force Western Test Range (AFWTR)
Object type
Payload
Rocket body
Debris
Shape & HBR
Unknown shape, 0.1 m
Radar Cross Section
Small (<0.1 m²)

Expand to show TLE details & history
Last TLE update: 19 hours ago

TLE from 19 hours ago
0 DMSP 5D-2 F13 DEB
1 40490U 95015CD  26061.63242765  .00002759  00000-0  20047-2 0  9995
2 40490  98.7634 203.6088 0157639 107.4104 254.4361 13.91308478553812
Epoch: 2026-03-02T15:10Z
TLE epoch observation values (Epoch: 2026-03-02T15:10:41.748Z)
Latitude
-0.00008°
Longitude
175.51181°
Altitude
959.489 km
Speed
7.356 km/s
True Right ascension
13h 34m 26s
True Declination
0° 00' 00"
Sunlit
Object was in full shadow at epoch
Visualization orbit readout
Latitude
Unknown
Longitude
Unknown
Altitude
Unknown
Speed
Unknown
Apparent Right ascension
Unknown
Apparent Declination
Unknown
Sunlit
N/A
Visualization observer readout
Local Sidereal Time
13:31:32
Azimuth
Unknown
Elevation
Unknown
Doppler factor
Unknown
Orbital elements
Apogee altitude
1,036.314 km
Perigee altitude
806.181 km
Semi-major axis
7,299.385 km
Eccentricity
0.01576
Inclination
98.7634°
RAAN
203.6088°
Arg. of periapsis
107.4104°
True anomaly
252.70534°
Mean anomaly
254.4361°
Eccentric anomaly
253.56978°
Mean motion
3.48028 °/min
Orbital period
103.44 mins
BSTAR
0.0020047
Loading maneuver chart data...
Computing Atmospheric mass density...

Documentation

Showing up to 5 results
|